Tracking 21094 objects as of 12-Aug-2020
HD Live streaming from Space Station
objects crossing your sky now
Track the most recent launched group of Starlink satellites

FALCON 9 R/B

Track FALCON 9 R/B now!


NORAD ID: 40426
Int'l Code: 2015-010C
Perigee: 418.0 km
Apogee: 62,210.0 km
Inclination: 26.0 °
Period: 1,213.4 minutes
Semi major axis: 37684 km
RCS: Unknown
Launch date: March 2, 2015
Source: United States (US)
Launch site: AIR FORCE EASTERN TEST RANGE (AFETR)

Note: This is a ROCKET BODY
aabbcc
Your satellite tracking list
Your tracking list is empty




NASA's NSSDC Master Catalog

Two Line Element Set (TLE):
1 40426U 15010C   20224.60652692 -.00000333 +00000-0 +98829-4 0  9999
2 40426 026.0481 050.7072 8198477 054.8200 356.7663 01.18672535023260
Source of the keplerian elements: AFSPC